Regional Weather Roundup
Issued by NWS

Home | Current Version | Previous Version | Text Only | Print | Product List | Glossary Off
Versions: 1 2 3 4 5 6 7 8 9 10 11 12 13 14 15 16 17 18 19 20 21 22 23 24 25 26 27 28 29 30 31 32 33 34 35 36 37 38 39 40 41 42 43 44 45 46 47 48 49 50

000
ASUS43 KBIS 261902
RWRND

NORTH DAKOTA REGIONAL WEATHER ROUNDUP
NATIONAL WEATHER SERVICE BISMARCK ND
200 PM CDT FRI AUG 26 2016

NOTE: "FAIR" INDICATES FEW OR NO CLOUDS BELOW 12,000 FEET WITH NO
SIGNIFICANT WEATHER AND/OR OBSTRUCTIONS TO VISIBILITY.


NDZ001>003-009>011-017-262000-
NORTHWEST NORTH DAKOTA

CITY           SKY/WX    TMP DP  RH WIND       PRES   REMARKS
WILLISTON      SUNNY     76  41  28 SW13      29.98F
MINOT          MOSUNNY   74  43  32 S15       29.99F
MINOT AFB      MOSUNNY   75  42  30 VRB6      29.97F
$$

NDZ018>021-031>035-040>046-262000-
SOUTHWEST NORTH DAKOTA

CITY           SKY/WX    TMP DP  RH WIND       PRES   REMARKS
BISMARCK       CLOUDY    71  51  49 S14G24    30.09F
DICKINSON      PTSUNNY   65  44  46 SW21G29   30.03S
GARRISON         N/A     72  48  42 SE8       30.01F
HETTINGER ARPT CLOUDY    71  47  42 S18       30.07F
$$

NDZ004>008-012>016-024-026-027-054-262000-
NORTHEAST NORTH DAKOTA

CITY           SKY/WX    TMP DP  RH WIND       PRES   REMARKS
GRAND FORKS    PTSUNNY   77  52  41 SW13      30.04S
GRND FRKS AFB  MOSUNNY   76  51  40 SW10      30.05S
DEVILS LAKE    CLOUDY    71  51  49 SW10      30.06S
$$

NDZ022-023-025-028>030-036>039-047>053-262000-
SOUTHEAST NORTH DAKOTA

CITY           SKY/WX    TMP DP  RH WIND       PRES   REMARKS
FARGO          PTSUNNY   75  49  39 SW13      30.09R
JAMESTOWN      CLOUDY    67  52  58 SW8       30.09F
$$





USA.gov is the U.S. government's official web portal to all federal, state and local government web resources and services.